Flag Weather past 2 weeks in Leoben, Styria, Austria

Now
39 °F

Scattered showers. Partly sunny.


Feels Like: 35 °F
Forecast: 26 / 40 °F
Wind: 6 mph from Southeast

Location: Zeltweg

Current Time: Nov 26, 2014 at 12:29:07 PM

Latest Report: Nov 26, 2014 at 11:50 AM


Visibility: 6 mi

Pressure: 30.12 "Hg

Humidity: 70%

Dew point: 30 °F

Location of LeobenLocation

Historic Weather in Leoben — Graph

°F

Leoben temperature yesterday

Maximum temperature yesterday: 41 °F (at 1:50 PM)
Minimum temperature yesterday: 37 °F (at 4:50 AM)
Average temperature yesterday: 39 °F

Past Weeks' High & Low Weather Summary

 TemperatureHumidityPressure
High61 °F (Nov 11, 1:50 PM)100% (Nov 11, 8:50 PM)30.42 "Hg (Nov 11, 8:50 PM)
Low30 °F (Nov 22, 5:50 AM)51% (Nov 16, 12:50 PM)29.59 "Hg (Nov 16, 4:50 AM)
Average44 °F87%30.00 "Hg
* Reported Nov 11 11:20 AM — Nov 26 11:20 AM, Leoben, Weather by CustomWeather, © 2014

Note: Actual official high and low records may vary slightly from our data, if they occured in-between our weather recording intervals... More about our weather records

Advertising

Leoben weather history for previous 24 hours

 ConditionsComfort  
Time TempWeatherWind HumidityBarometerVisibility
11:20 AM
Nov 26
39 °FPartly sunny.6 mph70%30.12 "Hg16 mi
10:50 AM37 °FPartly sunny.5 mph75%30.12 "Hg16 mi
10:20 AM37 °FPartly sunny.6 mph75%30.15 "Hg12 mi
9:50 AM37 °FPartly sunny.5 mph81%30.15 "Hg16 mi
9:20 AM37 °FPartly sunny.5 mph81%30.15 "Hg16 mi
8:50 AM37 °FPartly sunny.3 mph81%30.15 "Hg12 mi
8:20 AM37 °FPartly sunny.5 mph81%30.15 "Hg9 mi
7:50 AM37 °FPartly sunny.5 mph81%30.12 "Hg9 mi
7:20 AM37 °FPartly sunny.1 mph87%30.12 "Hg7 mi
6:50 AM37 °FOvercast.2 mph87%30.12 "Hg6 mi
5:50 AM37 °FPartly cloudy.2 mph87%30.12 "Hg4 mi
9:50 PM
Nov 25
37 °FLow clouds.2 mph93%30.21 "Hg5 mi
8:50 PM39 °FMostly cloudy.5 mph87%30.21 "Hg5 mi
7:50 PM39 °FMostly cloudy.3 mph87%30.21 "Hg5 mi
6:50 PM39 °FLow clouds.7 mph87%30.21 "Hg5 mi
5:50 PM41 °FLow clouds.5 mph81%30.21 "Hg5 mi
4:50 PM41 °FPartly cloudy.2 mph87%30.21 "Hg5 mi
4:20 PM41 °FPartly cloudy.1 mph87%30.21 "Hg5 mi
3:50 PM41 °FBroken clouds.2 mph87%30.21 "Hg5 mi
3:20 PM39 °FBroken clouds.1 mph93%30.21 "Hg5 mi
2:50 PM39 °FPartly sunny.2 mph93%30.21 "Hg5 mi
2:20 PM39 °FPartly sunny.3 mph93%30.21 "Hg5 mi
1:50 PM41 °FBroken clouds.1 mph87%30.21 "Hg5 mi
1:20 PM39 °FBroken clouds.2 mph93%30.21 "Hg5 mi
12:50 PM39 °FBroken clouds.1 mph93%30.21 "Hg4 mi
12:20 PM39 °FFog.3 mph93%30.24 "Hg3 mi
Weather by CustomWeather, © 2014

See weather overviewHow to use our weather pages